Kuchera_Ratio
0.0 0.0 2.6 0.0 0.0 0.0 0.0 0.0 0.0 0.0 0.0 0.3 1.1 2.0 0.0 0.4 1.8 2.4 4.6 4.1 3.2 2.3 1.3 1.0 0.0 0.0 0.0 0.0 0.0 0.0 0.0 0.0 0.0 0.0 0.0 0.0 0.0 0.0 0.0 0.0 0.0 0.0 0.0 0.0
0.0 2.0 0.0 0.0 0.0 0.0 0.0 0.0 1.1 0.0 0.0 0.0 2.1 3.1 1.0 2.9 0.3 1.6 1.4 2.0 3.2 3.4 2.5 1.8 1.2 0.6 0.0 0.0 0.0 0.0 0.0 0.0 0.0 0.0 0.0 0.0 0.0 0.0 0.0 0.0 0.0 0.0 0.0 0.0
2.4 0.0 0.0 0.0 0.0 0.0 0.0 0.0 1.0 0.3 0.0 0.0 0.5 6.7 5.5 2.7 4.0 4.8 4.7 3.1 2.1 0.7 1.8 1.7 2.1 1.3 0.8 0.1 0.0 0.0 0.0 0.0 0.0 0.0 0.0 0.1 0.0 0.0 0.0 0.0 0.0 0.0 0.0 0.0
0.0 0.0 0.0 0.0 0.0 0.0 1.3 0.0 0.0 0.0 5.5 10.3 0.7 12.9 5.6 1.6 1.8 3.6 4.2 3.7 0.8 0.5 3.6 4.4 2.6 1.8 0.7 0.0 0.2 0.0 0.0 0.0 0.0 0.0 0.4 2.0 1.2 0.9 1.5 1.8 0.9 0.0 0.0 0.0
0.8 0.0 0.0 0.0 0.0 0.0 0.0 0.0 0.0 0.0 3.7 4.1 8.7 12.8 5.0 1.3 2.5 0.0 0.0 0.3 2.8 2.1 3.5 3.7 3.9 3.6 2.3 1.5 1.5 0.0 0.0 0.0 1.1 1.9 3.2 3.6 4.2 4.0 3.9 3.7 3.3 3.2 1.9 1.6
0.0 0.0 0.0 0.0 0.0 0.0 0.0 0.0 0.0 0.0 4.1 13.4 8.8 11.5 10.4 5.7 0.0 0.0 0.0 0.0 1.3 3.1 6.4 6.8 6.2 4.8 3.7 3.4 3.4 2.2 2.6 3.1 4.5 4.6 3.2 4.2 5.8 5.5 5.8 5.6 5.5 4.8 4.5 4.1
0.0 0.0 0.0 0.0 0.0 0.0 0.0 0.8 12.6 13.8 14.0 14.5 3.0 11.8 1.7 0.0 0.0 0.0 0.0 0.0 0.0 3.7 6.5 5.9 5.7 6.6 7.0 6.9 7.2 6.7 6.7 6.1 5.5 4.9 4.9 5.9 6.2 7.2 7.2 6.9 7.0 7.2 6.5 6.0
10.4 11.6 0.0 0.0 0.0 0.0 0.0 0.0 11.7 15.5 14.7 13.9 3.0 12.0 6.6 0.0 0.0 0.0 0.0 0.0 0.0 0.6 2.9 4.9 7.4 8.2 8.5 8.0 8.1 7.8 7.6 6.8 6.9 6.1 7.1 7.7 8.3 8.8 8.4 8.2 8.5 8.6 8.1 7.9
8.4 9.5 0.0 0.0 0.0 0.0 0.1 4.4 0.0 6.6 6.4 11.7 9.0 4.9 0.0 0.0 0.0 0.0 0.0 0.0 0.0 1.4 2.6 4.7 6.9 8.2 9.4 9.9 9.7 8.9 8.7 8.3 8.6 8.9 9.2 9.6 9.9 10.6 10.7 10.9 10.7 10.4 9.7 9.5
3.5 9.8 0.0 0.0 0.0 0.0 0.0 0.0 6.8 5.2 15.0 15.6 12.2 9.8 7.9 0.0 0.0 0.6 0.0 0.0 0.6 1.2 3.6 6.1 6.8 7.7 7.8 8.2 8.7 9.2 9.8 10.6 11.0 11.1 11.2 11.5 12.1 12.3 12.6 12.3 12.2 12.0 11.6 11.5
4.5 6.7 6.0 0.0 0.0 2.6 0.0 0.9 0.0 1.0 7.8 13.4 15.5 9.6 0.0 0.0 0.0 0.0 0.0 0.3 1.5 3.7 4.7 6.2 6.9 7.1 8.7 10.0 9.9 10.1 11.3 12.0 12.2 12.4 12.6 12.9 13.5 13.5 13.5 13.3 13.0 13.0 12.7 12.6
3.4 9.0 11.8 8.1 0.6 0.0 0.0 0.0 0.8 9.0 11.9 7.3 8.1 9.7 0.0 1.1 0.2 1.4 0.0 1.6 5.5 7.2 7.9 8.4 8.4 9.1 10.0 10.6 11.4 12.1 12.5 13.3 13.7 14.0 14.2 14.5 14.7 14.5 14.4 14.1 13.9 13.7 13.8 13.7
6.4 10.5 14.0 12.2 7.4 4.6 9.0 4.1 3.5 1.5 5.6 8.8 12.9 11.8 2.2 2.2 1.6 3.5 3.0 5.0 7.6 8.2 9.1 9.4 9.8 10.9 11.8 12.2 12.9 13.8 14.4 14.8 15.3 15.6 15.9 15.7 15.4 15.3 15.0 14.8 14.7 14.7 14.6 14.5
3.6 11.2 13.0 15.2 11.9 9.8 11.8 9.1 7.9 9.1 12.0 10.5 9.3 10.1 7.7 4.0 2.6 2.0 4.0 6.1 7.7 9.5 10.3 10.9 11.6 12.1 12.4 13.0 14.2 15.2 15.4 15.9 16.6 16.9 16.8 16.4 16.1 15.9 15.7 15.6 15.5 15.3 15.3 15.3
8.2 13.9 14.1 11.0 8.9 8.6 9.9 10.2 8.8 11.5 9.6 12.2 5.3 5.7 3.1 0.3 0.3 2.9 4.2 6.4 8.3 7.4 8.9 10.4 11.1 12.9 13.5 13.9 14.7 15.6 15.7 16.1 16.9 17.4 17.1 16.7 16.5 16.5 16.5 16.2 16.0 16.0 16.0 16.1
8.9 16.1 14.6 15.5 11.0 10.9 12.6 10.5 10.1 9.8 9.1 9.7 8.1 11.1 6.6 5.4 7.6 8.4 9.1 10.6 7.5 9.4 8.2 9.0 10.9 12.1 13.1 14.0 15.6 16.1 16.8 17.2 17.5 18.0 17.6 17.3 17.3 17.1 16.9 16.9 16.8 17.0 17.3 17.3
13.7 16.6 16.1 20.4 14.6 14.6 16.9 12.8 11.0 9.1 8.2 8.3 11.5 9.9 9.3 8.2 8.0 6.6 7.0 8.9 10.0 11.2 11.8 12.4 12.9 14.0 14.9 15.7 15.9 16.2 16.7 17.3 17.7 18.2 18.2 18.1 18.1 18.1 17.9 17.8 17.6 17.4 17.5 17.8
16.0 17.2 17.0 21.3 17.2 24.9 12.7 13.4 12.4 13.5 12.7 12.9 12.5 12.4 11.6 9.1 8.1 10.8 11.2 11.4 8.7 11.5 14.3 13.9 13.4 14.3 15.5 17.0 16.7 16.6 16.9 17.5 18.0 18.7 19.0 18.7 19.0 19.1 18.9 18.7 18.2 18.4 18.8 19.1
12.9 18.0 17.9 21.1 20.8 18.3 13.7 14.1 14.9 15.1 13.8 14.1 14.2 13.1 12.8 13.6 13.2 13.9 13.7 13.8 13.9 14.2 14.4 14.9 15.8 16.9 17.2 17.2 17.4 17.9 19.0 20.0 19.6 19.3 19.7 19.3 19.3 19.3 19.0 18.9 19.0 18.7 18.7 18.7
14.2 13.9 16.7 22.3 22.8 24.7 17.2 17.3 17.1 17.0 17.3 15.9 15.0 14.9 13.7 15.0 15.2 13.9 14.0 14.1 14.3 14.7 16.2 16.5 17.0 17.6 18.0 19.7 20.6 20.9 20.8 20.4 20.5 20.3 19.4 18.3 18.3 18.4 19.0 18.9 19.3 18.6 19.5 17.7
17.9 16.7 18.2 19.4 20.6 18.4 18.9 18.6 18.4 19.6 17.7 17.5 16.8 16.6 16.7 16.6 16.2 15.7 15.0 15.1 16.2 17.5 17.7 17.8 18.2 19.6 20.3 21.2 20.8 21.2 20.8 20.0 17.9 17.0 17.1 17.1 17.3 18.0 18.3 19.1 19.0 19.4 19.9 20.1
19.0 19.3 21.0 20.0 20.4 21.8 19.9 20.2 19.5 18.6 18.7 18.1 17.8 17.4 17.0 17.3 17.7 17.8 18.0 18.4 18.6 18.2 17.9 18.6 19.8 21.2 21.7 20.8 19.6 19.7 19.4 17.9 17.5 17.5 17.7 18.3 18.7 17.4 17.5 18.7 19.2 19.6 22.0 22.6
20.2 20.5 20.7 20.8 21.0 20.7 19.7 19.8 20.6 20.4 19.7 19.3 19.1 18.6 18.7 18.8 19.5 19.9 19.7 19.8 19.6 19.8 20.3 21.2 21.9 21.8 20.8 19.3 18.2 19.7 19.2 18.5 18.9 19.4 20.0 19.9 19.2 18.5 18.4 19.4 20.1 21.5 23.1 23.2
20.8 20.8 21.5 21.9 21.0 20.3 20.5 20.2 20.9 21.8 21.6 21.1 20.5 19.7 19.9 20.5 20.6 21.0 21.5 21.5 21.5 21.8 22.0 21.6 21.2 21.2 20.8 18.9 18.8 19.5 19.1 19.3 20.0 20.8 21.0 20.8 21.4 21.5 21.2 20.7 20.5 22.5 23.0 22.9
20.1 21.4 21.6 21.3 21.1 21.9 21.9 21.8 21.5 22.2 21.7 21.6 21.2 21.4 22.0 21.8 21.8 22.5 22.9 22.6 22.2 21.7 20.9 20.0 20.5 20.6 20.9 20.2 20.2 19.6 19.8 20.2 21.0 21.6 21.8 22.0 21.7 22.7 23.0 22.0 23.3 22.8 22.5 21.5
20.9 21.4 22.5 21.6 22.1 22.7 22.6 22.9 22.2 22.6 22.7 22.1 22.1 22.5 21.7 21.7 22.6 22.3 22.8 22.0 21.6 21.1 19.8 20.3 20.4 20.8 21.2 21.1 21.4 21.1 20.7 21.0 21.9 22.4 22.4 23.2 23.8 23.9 23.9 23.9 23.8 18.6 17.3 16.0